F4GCF-13 Weather Reports


time (UTC)temp
C
wind
direction
speed
KPH
gust
KPH
rain 1hr
cm
rain 24hr
cm
rain mn
cm
humidity
%
barometer
mb
20260510043211 13 117 6.4 6.4 0.00 0.00 0.00 83 1010.0
20260510040712 13 79 0.0 3.2 0.00 0.00 0.00 83 1010.0
20260510035716 13 120 3.2 3.2 0.00 0.00 0.00 83 1010.0
20260510030213 13 145 3.2 4.8 0.00 0.00 0.00 80 1010.0
20260510024712 13 159 3.2 4.8 0.00 0.00 0.00 80 1010.0
20260510022713 13 165 3.2 3.2 0.00 0.00 0.00 79 1010.0
20260510020715 13 164 6.4 8.0 0.00 0.00 0.00 79 1010.0
20260510014713 13 168 3.2 6.4 0.00 0.00 0.00 76 1011.0
20260510013712 13 161 1.6 3.2 0.00 0.00 0.00 77 1011.0
20260510013214 13 155 3.2 1.6 0.00 0.00 0.00 77 1011.0
20260510012714 13 161 4.8 6.4 0.00 0.00 0.00 77 1011.0
20260510005747 13 145 4.8 4.8 0.00 0.00 0.00 76 1011.0
20260510005712 13 145 4.8 4.8 0.00 0.00 0.00 76 1011.0
20260510003713 13 158 3.2 4.8 0.00 0.00 0.00 77 1011.0
20260509232713 13 153 4.8 3.2 0.00 0.00 0.00 76 1011.0
20260509231713 13 110 3.2 4.8 0.00 0.00 0.00 76 1011.0
20260509223713 13 160 0.0 0.0 0.00 0.00 0.00 74 1011.0
20260509222756 13 302 0.0 0.0 0.00 0.00 0.00 73 1011.0
20260509222712 13 302 0.0 0.0 0.00 0.00 0.00 73 1011.0
20260509215712 14 161 0.0 0.0 0.00 0.00 0.00 69 1011.0
20260509213712 14 223 1.6 3.2 0.00 0.00 0.00 68 1012.0
20260509211713 15 182 1.6 1.6 0.00 0.00 0.00 66 1012.0
20260509204714 15 166 3.2 3.2 0.00 0.00 0.00 66 1012.0
20260509203713 16 163 4.8 4.8 0.00 0.00 0.00 66 1011.0
20260509202714 16 158 4.8 4.8 0.00 0.00 0.00 66 1011.0
20260509202214 16 128 4.8 6.4 0.00 0.00 0.00 66 1011.0
20260509201213 16 128 6.4 8.0 0.00 0.00 0.00 66 1011.0
20260509200713 16 109 9.7 9.7 0.00 0.00 0.00 65 1011.0
20260509195712 16 135 9.7 12.9 0.00 0.00 0.00 67 1011.0
20260509194715 16 102 8.0 9.7 0.00 0.00 0.00 69 1011.0
20260509193713 16 93 8.0 9.7 0.00 0.00 0.00 68 1010.0
20260509193215 16 112 4.8 6.4 0.00 0.00 0.00 68 1010.0
20260509192712 17 112 3.2 4.8 0.00 0.00 0.00 67 1010.0
20260509185214 17 67 8.0 9.7 0.00 0.00 0.00 66 1010.0
20260509175714 18 112 11.3 12.9 0.00 0.00 0.00 61 1009.0
20260509174751 19 109 12.9 12.9 0.00 0.00 0.00 60 1009.0
20260509174212 19 109 12.9 12.9 0.00 0.00 0.00 60 1009.0
20260509173713 19 88 16.1 19.3 0.00 0.00 0.00 58 1009.0
20260509172839 20 142 17.7 22.5 0.00 0.00 0.00 56 1009.0
20260509172713 19 118 14.5 16.1 0.00 0.00 0.00 58 1009.0
20260509171713 20 142 17.7 22.5 0.00 0.00 0.00 56 1009.0
20260509171215 20 130 16.1 20.9 0.00 0.00 0.00 56 1009.0
20260509170752 20 125 17.7 20.9 0.00 0.00 0.00 56 1009.0
20260509170712 20 125 17.7 20.9 0.00 0.00 0.00 56 1009.0
20260509165712 20 90 17.7 22.5 0.00 0.00 0.00 53 1009.0
20260509165212 20 113 16.1 19.3 0.00 0.00 0.00 53 1009.0
20260509165030 21 109 19.3 25.7 0.00 0.00 0.00 52 1009.0
20260509164717 20 112 16.1 17.7 0.00 0.00 0.00 52 1009.0
20260509164213 21 114 20.9 20.9 0.00 0.00 0.00 52 1009.0
20260509163712 21 109 19.3 25.7 0.00 0.00 0.00 52 1009.0
20260509163212 21 109 22.5 27.4 0.00 0.00 0.00 51 1009.0
20260509162713 21 124 16.1 29.0 0.00 0.00 0.00 50 1009.0
20260509162213 21 76 19.3 27.4 0.00 0.00 0.00 51 1009.0
20260509161714 21 122 19.3 22.5 0.00 0.00 0.00 51 1009.0
20260509161213 21 93 22.5 22.5 0.00 0.00 0.00 51 1009.0
20260509160743 21 96 16.1 22.5 0.00 0.00 0.00 51 1009.0
20260509160712 21 96 16.1 22.5 0.00 0.00 0.00 51 1009.0
20260509160212 21 85 22.5 22.5 0.00 0.00 0.00 50 1009.0
20260509155713 21 150 17.7 24.1 0.00 0.00 0.00 49 1009.0
20260509155212 21 105 12.9 16.1 0.00 0.00 0.00 52 1009.0
20260509154713 21 98 17.7 19.3 0.00 0.00 0.00 52 1009.0
20260509154212 21 91 17.7 16.1 0.00 0.00 0.00 49 1009.0
20260509153712 21 105 16.1 17.7 0.00 0.00 0.00 50 1009.0
20260509152713 21 120 16.1 24.1 0.00 0.00 0.00 50 1009.0
20260509151712 21 112 22.5 24.1 0.00 0.00 0.00 52 1009.0
20260509151213 21 130 17.7 20.9 0.00 0.00 0.00 50 1009.0
20260509150713 21 108 14.5 17.7 0.00 0.00 0.00 50 1010.0
20260509150215 21 112 14.5 20.9 0.00 0.00 0.00 51 1010.0
20260509145713 22 112 14.5 20.9 0.00 0.00 0.00 50 1010.0
20260509144713 22 112 14.5 16.1 0.00 0.00 0.00 50 1010.0
20260509143711 21 91 14.5 20.9 0.00 0.00 0.00 53 1010.0
20260509143244 22 109 14.5 17.7 0.00 0.00 0.00 51 1010.0
20260509143213 22 109 14.5 17.7 0.00 0.00 0.00 51 1010.0
20260509142714 22 136 16.1 14.5 0.00 0.00 0.00 50 1010.0
20260509141712 22 103 16.1 19.3 0.00 0.00 0.00 52 1009.0
20260509141212 22 131 17.7 27.4 0.00 0.00 0.00 53 1009.0
20260509140713 22 112 16.1 17.7 0.00 0.00 0.00 52 1010.0
20260509135712 22 114 16.1 19.3 0.00 0.00 0.00 52 1010.0
20260509134213 22 117 9.7 12.9 0.00 0.00 0.00 54 1009.0
20260509133713 21 94 11.3 16.1 0.00 0.00 0.00 55 1010.0
20260509132712 21 97 11.3 11.3 0.00 0.00 0.00 54 1010.0
20260509131713 21 115 16.1 17.7 0.00 0.00 0.00 54 1010.0
20260509131213 21 102 12.9 16.1 0.00 0.00 0.00 55 1010.0
20260509130712 21 101 11.3 14.5 0.00 0.00 0.00 57 1011.0
20260509125713 21 103 11.3 12.9 0.00 0.00 0.00 56 1011.0
20260509124712 21 117 12.9 20.9 0.00 0.00 0.00 55 1010.0
20260509124353 21 99 16.1 16.1 0.00 0.00 0.00 57 1010.0
20260509124213 21 99 16.1 16.1 0.00 0.00 0.00 57 1010.0
20260509123712 21 96 12.9 19.3 0.00 0.00 0.00 56 1011.0
20260509122712 21 110 11.3 14.5 0.00 0.00 0.00 58 1011.0
20260509122218 21 106 11.3 9.7 0.00 0.00 0.00 58 1011.0
20260509121713 21 107 12.9 16.1 0.00 0.00 0.00 57 1011.0
20260509120713 21 87 11.3 14.5 0.00 0.00 0.00 56 1011.0
20260509115213 21 80 16.1 16.1 0.00 0.00 0.00 58 1011.0
20260509114224 21 81 12.9 17.7 0.00 0.00 0.00 56 1011.0
20260509113713 21 112 11.3 11.3 0.00 0.00 0.00 56 1011.0
20260509113214 21 135 12.9 16.1 0.00 0.00 0.00 56 1011.0
20260509112714 21 109 11.3 16.1 0.00 0.00 0.00 56 1011.0
20260509111711 21 99 14.5 17.7 0.00 0.00 0.00 57 1012.0
20260509105712 21 156 11.3 11.3 0.00 0.00 0.00 59 1013.0
20260509104715 21 98 12.9 14.5 0.00 0.00 0.00 61 1012.0
20260509103715 21 113 14.5 16.1 0.00 0.00 0.00 60 1012.0
20260509102712 20 113 11.3 14.5 0.00 0.00 0.00 62 1012.0
20260509102331 21 93 11.3 14.5 0.00 0.00 0.00 61 1012.0
20260509102216 21 93 11.3 14.5 0.00 0.00 0.00 61 1012.0
20260509101713 20 112 14.5 19.3 0.00 0.00 0.00 65 1012.0
20260509100714 20 109 16.1 12.9 0.00 0.00 0.00 63 1012.0
20260509100556 20 88 11.3 14.5 0.00 0.00 0.00 64 1012.0
20260509100214 20 88 11.3 14.5 0.00 0.00 0.00 64 1012.0
20260509095713 20 149 11.3 12.9 0.00 0.00 0.00 64 1012.0
20260509094712 19 160 8.0 9.7 0.00 0.00 0.00 65 1012.0
20260509093713 19 110 9.7 14.5 0.00 0.00 0.00 66 1012.0
20260509093213 19 142 11.3 14.5 0.00 0.00 0.00 65 1012.0
20260509092713 19 149 11.3 12.9 0.00 0.00 0.00 66 1012.0
20260509091712 19 112 8.0 12.9 0.00 0.00 0.00 68 1012.0
20260509091214 19 123 14.5 12.9 0.00 0.00 0.00 67 1012.0
20260509090713 18 129 11.3 14.5 0.00 0.00 0.00 69 1012.0
20260509090213 18 134 11.3 16.1 0.00 0.00 0.00 69 1012.0
20260509085712 18 168 11.3 14.5 0.00 0.00 0.00 70 1012.0
20260509085212 18 93 9.7 14.5 0.00 0.00 0.00 71 1013.0
20260509084712 18 158 6.4 9.7 0.00 0.00 0.00 72 1013.0
20260509083213 18 85 11.3 12.9 0.00 0.00 0.00 73 1013.0
20260509082712 18 96 14.5 17.7 0.00 0.00 0.00 74 1013.0
20260509082212 18 102 12.9 14.5 0.00 0.00 0.00 75 1013.0
20260509081712 17 130 12.9 17.7 0.00 0.00 0.00 77 1013.0
20260509080713 17 124 16.1 17.7 0.00 0.00 0.00 77 1013.0
20260509075213 17 103 11.3 12.9 0.00 0.00 0.00 81 1013.0
20260509074711 16 96 11.3 17.7 0.00 0.00 0.00 82 1013.0
20260509074213 16 90 14.5 14.5 0.00 0.00 0.00 82 1013.0
20260509073713 16 77 17.7 20.9 0.00 0.00 0.00 82 1012.0
20260509073213 16 109 12.9 14.5 0.00 0.00 0.00 84 1012.0
20260509072712 16 79 14.5 16.1 0.00 0.00 0.00 85 1012.0
20260509072211 16 123 14.5 19.3 0.00 0.00 0.00 87 1013.0
20260509070712 15 119 11.3 16.1 0.00 0.00 0.00 91 1013.0
20260509070212 15 107 11.3 12.9 0.00 0.00 0.00 92 1013.0
20260509065712 15 84 9.7 11.3 0.00 0.00 0.00 93 1013.0
20260509065214 14 131 11.3 16.1 0.00 0.00 0.00 94 1014.0
20260509064713 14 77 9.7 11.3 0.00 0.00 0.00 94 1014.0
20260509064212 14 110 11.3 12.9 0.00 0.00 0.00 94 1014.0
20260509063713 14 97 11.3 14.5 0.00 0.00 0.00 95 1013.0
20260509063212 13 67 12.9 11.3 0.00 0.00 0.00 95 1013.0
20260509062713 13 118 8.0 9.7 0.00 0.00 0.00 95 1013.0
20260509062212 13 112 8.0 12.9 0.00 0.00 0.00 96 1014.0
20260509062115 13 104 8.0 9.7 0.00 0.00 0.00 96 1014.0
20260509061715 13 104 8.0 9.7 0.00 0.00 0.00 96 1014.0
20260509061213 13 114 6.4 9.7 0.00 0.00 0.00 96 1014.0
20260509060712 13 92 8.0 8.0 0.00 0.00 0.00 96 1013.0
20260509055215 13 106 6.4 9.7 0.00 0.00 0.00 96 1013.0
20260509054217 12 104 6.4 8.0 0.00 0.00 0.00 96 1013.0
20260509053717 12 127 4.8 6.4 0.00 0.00 0.00 95 1013.0
20260509053214 12 103 4.8 6.4 0.00 0.00 0.00 95 1013.0
20260509052718 12 112 6.4 6.4 0.00 0.00 0.00 94 1013.0
20260509052215 12 94 4.8 6.4 0.00 0.00 0.00 94 1013.0
20260509051349 11 94 4.8 6.4 0.00 0.00 0.00 94 1013.0
20260509051216 11 94 4.8 6.4 0.00 0.00 0.00 94 1013.0
20260509050718 11 112 3.2 4.8 0.00 0.00 0.00 93 1013.0
20260509050214 11 107 3.2 3.2 0.00 0.00 0.00 93 1013.0
20260509044718 11 112 4.8 6.4 0.00 0.00 0.00 93 1013.0
20260509044215 11 125 3.2 4.8 0.00 0.00 0.00 93 1013.0
20260509043713 11 126 3.2 3.2 0.00 0.00 0.00 93 1013.0